Location: Albany
(35.0170°S, 117.8920°E)
Time: 02:07:17
(UTC+08:00)

Explorer 7 - Pass Details

Date: 29 January 2021
Orbit: 484 x 677 km, 50.3° (Epoch: 01 March)

Event Time Altitude Azimuth Distance (km) Brightness Sun altitude
Rises 16:49:59 0° 247° (WSW) 3,041 11.7 28.6°
Reaches altitude 10° 16:53:32 10° 222° (SW) 2,110 10.5 27.9°
Maximum altitude 16:56:03 14° 190° (S) 1,842 9.8 27.4°
Drops below altitude 10° 16:58:32 10° 159° (SSE) 2,070 9.7 26.9°
Sets 17:01:58 0° 133° (SE) 2,941 10.2 26.2°
